Wind_Speed
3 3 5 2 3 2 1 2 2 2 3 6 5 2 1 3 2 2 1 2 4 2 2 4 4 4 5 8 9 9 8 5 0 6 12 18 24 27 28 31 34 36 37 37 37 36 36 36 36 35 33 31 28 25 23 23 23 24 25 24 24 25 26
3 3 9 7 4 3 3 2 4 3 3 4 4 2 3 3 1 3 1 2 4 1 2 3 4 4 5 6 6 8 10 7 3 3 7 11 18 23 25 26 29 32 35 37 38 38 37 37 36 35 34 32 30 27 24 23 23 24 25 25 25 25 27
2 4 6 5 7 6 4 5 4 2 3 1 1 2 1 0 1 3 3 2 2 3 3 2 0 1 3 5 5 5 7 8 6 2 4 8 12 18 22 23 24 27 30 32 32 32 32 32 34 35 34 33 31 29 26 24 23 23 24 25 25 26 27
2 5 3 1 3 7 5 3 3 2 2 3 1 2 2 2 1 2 3 3 2 5 4 4 5 5 4 3 3 4 5 6 5 4 2 4 9 14 19 23 25 27 28 30 31 30 28 27 29 31 33 36 34 31 28 26 24 23 24 25 26 26 27
2 1 1 4 4 3 3 2 2 1 2 2 2 2 1 2 3 2 1 2 4 6 3 6 6 5 5 4 3 3 4 5 4 4 2 2 6 11 16 20 24 26 27 29 32 34 34 32 32 32 32 35 36 34 31 28 26 25 24 25 25 26 26
1 4 5 4 5 4 4 4 3 3 3 3 2 1 2 1 3 3 3 1 6 5 2 4 5 5 5 4 3 3 4 4 3 3 2 2 5 10 15 17 21 24 25 27 29 32 33 33 34 35 34 34 36 37 34 30 28 27 25 23 24 25 25
3 7 7 2 3 3 4 3 3 4 4 4 5 2 3 1 2 1 3 1 5 5 2 2 3 4 4 3 3 4 3 2 2 3 3 3 4 6 11 15 18 21 22 24 26 28 30 31 32 34 35 36 36 38 37 34 31 29 26 23 22 23 24
4 6 5 3 3 5 4 2 2 4 3 3 5 4 3 3 3 2 3 1 5 5 2 1 2 3 3 3 4 5 4 1 1 2 3 4 4 4 7 10 13 16 18 19 22 25 26 29 31 33 35 36 36 37 38 37 34 31 28 26 24 23 24
5 5 5 5 4 2 2 1 1 3 4 6 4 2 3 2 3 4 4 2 6 5 3 2 1 3 4 5 6 6 6 2 2 2 3 5 6 4 4 6 8 12 15 17 20 24 25 26 28 31 33 36 37 37 37 38 37 35 31 29 28 26 25
2 1 2 3 3 1 0 1 2 2 4 7 4 2 4 1 3 4 4 4 5 6 4 2 2 2 4 7 8 9 7 3 3 5 5 6 6 5 4 4 5 8 12 16 19 22 25 26 27 28 30 34 37 38 36 36 37 37 35 34 32 30 28
7 6 7 5 3 3 0 1 1 3 4 5 5 4 2 3 4 2 5 5 3 7 6 4 5 3 4 7 8 9 6 2 3 5 5 5 5 5 4 3 4 7 10 14 17 20 24 27 27 28 30 34 36 38 38 37 36 37 37 37 36 34 32
7 6 5 3 3 4 3 2 2 3 4 5 5 4 4 5 6 2 7 5 3 7 6 6 6 5 5 7 9 8 4 2 3 4 3 3 3 3 3 3 3 5 8 11 14 17 20 24 27 29 31 34 37 38 38 38 37 37 37 38 38 38 36
4 4 3 1 3 3 3 4 5 4 5 7 7 6 6 7 7 5 5 6 6 7 6 6 5 3 3 3 4 3 2 1 2 3 3 1 1 2 2 2 2 3 5 9 11 15 18 20 24 28 30 33 36 37 37 37 37 38 38 37 37 38 39
1 2 4 3 5 3 1 4 5 5 6 9 8 5 4 5 4 3 4 6 8 8 6 4 0 4 6 6 4 2 1 1 2 3 4 2 1 1 1 2 2 2 3 6 9 12 15 17 20 24 29 32 34 36 36 36 37 38 38 38 37 37 38
3 2 1 3 4 3 3 3 3 1 4 5 4 2 3 3 2 2 4 3 6 7 5 4 5 8 9 8 6 3 1 1 2 4 5 4 4 4 3 3 4 4 4 5 7 9 11 14 16 18 23 27 31 32 32 33 36 38 39 38 38 37 37
2 2 4 4 4 4 2 5 4 3 4 4 4 3 5 5 4 4 3 1 5 5 2 4 7 8 8 7 4 3 1 1 2 4 6 6 6 6 6 5 6 6 6 5 7 8 10 12 13 14 16 20 25 30 30 30 31 35 39 39 38 38 38
3 3 3 4 4 5 3 5 4 5 4 3 3 2 4 6 6 5 4 5 5 4 1 3 5 5 6 5 3 3 2 2 3 4 5 6 6 7 8 9 9 9 9 8 8 9 10 11 13 14 15 17 20 24 28 29 28 30 35 39 39 39 38
3 4 3 3 2 0 5 5 4 6 5 5 5 3 4 5 4 3 4 3 3 2 1 4 3 3 5 5 4 3 2 3 3 3 3 4 6 8 10 12 13 13 12 11 11 11 11 11 12 13 15 18 19 20 22 25 27 28 31 35 39 39 38
3 2 4 3 3 6 6 5 4 5 5 5 5 2 2 4 3 2 1 1 3 2 4 4 4 5 5 4 3 2 2 1 2 2 3 5 7 9 11 13 14 14 13 13 13 13 13 13 12 13 14 17 20 21 21 21 24 26 28 31 36 39 38
3 2 3 3 5 7 5 6 4 2 3 4 4 3 3 5 5 4 3 4 4 4 5 4 5 5 4 4 2 0 1 1 2 3 4 5 8 10 12 13 15 14 14 14 13 13 14 14 14 13 14 16 19 22 23 23 23 25 26 28 32 35 37
2 3 2 2 3 4 4 4 3 3 3 4 5 2 4 6 6 6 5 4 4 4 4 4 5 4 3 4 2 2 4 4 4 4 5 6 9 10 12 14 16 16 16 16 15 14 15 14 14 14 15 17 19 22 24 25 26 26 27 28 30 31 34
2 4 1 1 1 3 5 7 6 2 2 4 6 4 3 6 7 10 7 5 6 6 6 5 4 4 3 3 2 2 5 5 5 5 6 7 8 10 13 15 15 14 14 16 16 16 16 15 15 16 17 18 21 22 24 25 27 29 30 30 30 31 32
2 4 3 3 4 5 7 9 6 2 3 5 5 4 4 6 9 13 8 6 9 9 8 7 5 5 1 3 4 4 5 6 6 6 7 7 8 11 13 14 13 11 12 14 15 15 16 16 16 17 19 20 22 24 24 24 27 30 32 33 32 32 32
3 4 3 3 4 3 5 6 4 3 6 6 6 2 6 6 11 13 10 9 10 10 10 9 6 4 4 4 3 3 4 5 5 7 7 8 10 11 12 13 12 12 13 14 15 16 16 17 17 17 19 22 24 26 26 27 30 32 33 34 34 33 33
3 4 3 2 3 4 5 4 6 10 8 5 3 4 7 8 14 14 12 11 10 10 11 10 6 5 6 4 2 3 3 3 6 7 8 10 12 12 11 12 12 12 13 14 15 15 15 16 16 17 19 21 23 23 24 28 32 34 35 36 35 33 33
3 3 3 1 3 6 6 6 9 11 7 1 5 6 6 14 19 16 13 12 10 10 11 10 6 5 5 4 3 3 2 4 6 7 9 11 12 11 11 11 12 12 13 13 14 14 14 15 15 16 18 20 21 19 18 21 23 26 32 36 35 33 32
3 2 3 3 2 6 13 13 7 5 5 4 7 8 9 15 19 16 14 13 11 10 10 8 8 7 5 4 4 3 4 6 6 7 8 10 11 11 11 11 11 12 12 12 13 14 15 16 17 16 17 19 21 19 17 17 18 17 21 27 30 30 30
4 2 3 4 3 8 20 15 4 7 8 5 9 13 12 15 17 15 15 13 10 10 9 8 9 9 7 6 6 5 6 6 6 6 8 9 10 10 10 10 10 11 12 13 14 16 17 18 17 16 16 18 20 20 18 17 15 11 10 17 22 25 26
4 4 6 6 4 7 21 14 3 8 12 7 8 11 10 12 15 13 13 12 11 10 9 8 8 9 8 7 7 6 6 5 5 6 8 9 9 9 9 8 9 10 12 13 14 16 18 18 16 15 15 16 17 19 19 17 14 10 5 10 16 19 22
3 3 3 3 3 5 18 14 4 8 13 10 10 9 7 8 9 9 9 10 10 10 10 9 8 7 8 7 7 6 5 4 4 6 7 8 7 8 7 6 8 10 11 12 13 14 16 17 16 14 13 13 14 15 15 14 12 10 8 9 14 17 20
2 2 4 4 3 3 12 13 9 10 14 13 11 8 5 4 5 6 7 8 9 8 7 7 6 6 7 8 7 6 4 3 4 5 6 7 6 6 5 6 8 9 9 11 11 12 14 15 14 12 10 10 10 10 11 10 10 11 10 13 17 19 22
2 4 6 5 2 2 7 11 12 13 15 14 10 8 6 5 6 8 9 8 7 7 6 6 6 6 7 8 7 5 4 4 4 4 6 7 5 5 5 6 7 8 8 9 9 9 11 12 11 10 7 6 5 6 6 5 6 9 10 13 17 20 23
1 4 5 2 1 2 5 10 13 14 15 13 11 9 8 7 8 9 9 8 6 6 6 5 6 6 7 7 6 5 4 4 3 4 6 5 4 3 4 5 6 7 7 7 6 7 8 8 9 9 7 5 4 4 4 3 2 4 9 15 18 21 23
2 4 5 7 4 2 9 14 14 14 14 12 11 11 8 8 9 9 9 8 7 6 6 5 5 5 6 7 6 6 5 3 2 4 5 3 2 2 3 4 4 5 5 5 4 6 7 7 9 10 9 8 8 8 7 6 5 6 12 19 23 25 25
5 5 8 13 9 5 12 19 16 15 15 13 11 10 7 7 9 8 7 7 6 6 5 5 5 5 5 6 7 7 6 4 2 2 2 1 1 3 3 3 3 5 6 6 7 8 9 10 11 11 10 11 11 11 11 12 12 13 17 22 26 28 29
6 8 8 13 13 7 10 17 18 15 15 13 10 9 7 7 7 7 6 6 6 6 6 5 5 5 5 5 7 8 7 4 3 1 2 3 5 5 5 4 5 6 6 7 8 10 12 13 13 12 13 14 14 14 14 16 17 18 21 25 29 30 31
9 12 13 12 16 11 8 14 18 16 14 13 10 9 9 8 8 7 7 6 6 6 5 5 6 6 5 6 8 9 8 6 4 3 4 6 7 6 5 6 6 7 7 7 8 10 13 15 15 15 16 17 18 18 18 20 21 22 23 26 29 30 31
Wind_Direction
9 115 150 112 81 141 152 82 131 213 155 118 114 142 49 76 121 252 246 253 293 322 276 290 346 351 351 14 26 38 42 43 225 239 235 227 222 217 217 217 217 218 218 220 221 222 222 222 222 223 225 226 227 229 229 229 229 229 230 231 232 232 229
3 80 105 73 43 111 111 133 195 195 103 93 104 115 18 41 181 269 310 237 282 325 250 297 2 10 347 348 1 25 40 48 40 263 244 236 227 220 218 219 220 220 220 221 222 223 225 225 225 227 227 228 229 230 231 231 230 230 230 231 232 232 229
287 356 78 59 9 40 101 161 165 117 119 132 45 110 135 85 228 288 312 296 261 210 224 267 66 284 308 320 334 6 25 32 34 359 257 244 232 223 220 220 220 220 220 221 220 220 222 223 226 229 231 231 230 230 232 233 235 235 233 232 232 232 230
318 0 57 156 344 30 60 88 63 44 125 152 137 118 154 165 158 269 306 334 283 230 220 179 184 221 237 269 317 340 348 2 23 26 328 250 236 227 222 221 222 221 220 220 221 221 221 222 224 227 229 230 231 232 233 234 236 238 237 235 233 232 231
42 68 131 176 179 118 82 56 22 19 73 122 142 84 79 128 140 181 258 321 274 251 212 172 189 220 213 209 244 290 332 360 13 12 5 248 237 230 230 230 228 227 225 224 225 225 227 229 230 228 228 230 232 233 234 234 236 237 236 236 234 233 232
108 239 257 213 189 165 146 161 178 153 119 120 121 358 320 89 117 163 157 252 272 260 215 183 187 206 218 211 218 265 331 14 11 351 334 266 242 231 236 238 234 232 230 228 229 228 227 231 233 232 230 230 231 233 234 235 236 237 237 236 235 233 232
232 266 277 220 169 140 119 128 147 139 127 118 125 184 245 120 94 123 121 177 270 269 257 216 198 205 220 224 229 265 321 27 14 347 343 313 283 249 245 244 241 238 233 232 232 230 230 234 236 235 233 232 232 233 235 236 237 238 238 237 236 235 233
307 310 324 26 75 90 94 60 85 120 132 124 139 169 170 136 151 141 93 289 270 281 320 336 250 250 243 236 244 264 286 354 25 353 354 336 321 296 268 258 251 242 237 237 234 230 230 234 236 237 235 234 234 233 234 235 237 239 239 238 237 236 236
350 347 352 351 348 51 118 135 79 104 109 101 111 126 84 98 188 150 121 241 256 271 317 350 325 324 292 257 244 252 262 293 3 333 341 339 333 323 290 273 266 250 242 239 233 229 229 230 235 238 236 234 233 233 234 235 237 238 240 240 239 238 239
162 206 260 264 252 230 72 98 108 110 109 112 130 115 77 112 203 141 144 216 260 290 304 297 292 320 286 265 246 245 253 264 315 316 327 331 332 336 317 279 268 261 252 244 235 231 230 230 233 237 237 234 233 234 236 237 238 239 239 241 241 241 241
180 189 212 222 167 126 252 330 124 145 126 112 112 108 133 185 162 171 215 203 263 303 288 265 265 241 246 261 246 241 248 255 286 301 315 323 330 338 336 309 264 255 253 250 244 237 233 232 233 236 238 236 233 234 237 238 239 239 239 240 241 242 243
197 184 205 233 108 129 174 179 226 204 143 121 121 150 200 164 124 253 254 183 184 274 263 244 251 234 233 257 251 247 259 265 269 290 305 323 338 331 333 337 288 256 249 251 252 248 243 239 237 236 237 237 235 236 239 240 241 240 239 239 240 242 244
202 179 226 254 111 121 163 175 227 233 157 165 188 199 195 154 143 229 234 168 193 248 251 240 244 213 191 231 245 247 271 282 282 300 297 297 358 336 339 1 339 293 262 252 250 250 251 249 246 242 240 238 237 238 240 241 241 241 240 240 239 241 243
87 193 228 198 136 122 190 207 233 231 194 200 209 203 186 169 174 203 167 171 221 244 234 230 193 107 121 115 116 148 187 258 292 300 294 286 258 275 331 351 346 337 302 275 258 251 252 253 253 250 247 245 243 243 243 243 242 242 241 240 239 240 242
349 322 103 119 116 142 205 269 293 212 189 214 219 178 175 185 208 156 125 158 258 260 223 169 109 111 118 108 109 131 155 257 287 294 292 290 283 282 298 313 316 317 309 294 278 267 262 259 258 255 252 249 247 246 246 244 243 241 241 241 242 242 243
271 307 66 68 53 73 42 312 296 173 159 191 210 191 182 182 171 146 123 240 265 266 232 132 109 109 109 100 99 108 103 263 286 296 290 290 299 304 299 289 295 304 300 290 283 279 278 276 271 266 259 252 247 245 245 245 244 242 241 241 243 244 244
229 292 53 82 63 52 346 285 230 188 183 192 192 204 203 183 150 145 187 228 243 266 277 113 96 90 100 98 88 75 26 318 294 286 283 292 305 308 298 287 286 289 286 281 276 275 279 283 282 275 267 259 252 248 245 245 246 246 243 242 242 244 244
209 286 11 95 96 101 249 248 203 190 208 195 174 189 217 196 166 175 204 227 261 274 145 132 106 84 101 97 80 66 22 328 306 291 285 292 299 298 294 290 289 289 282 273 269 270 272 275 278 276 268 262 258 254 249 245 244 246 246 243 241 242 243
163 337 40 106 213 235 244 281 277 211 200 176 153 136 227 211 218 237 216 241 243 192 126 116 96 90 92 73 38 29 24 325 300 311 289 273 278 285 288 289 292 294 289 278 271 270 269 267 268 271 268 263 258 255 251 246 242 242 244 243 241 241 241
141 89 92 160 238 258 283 322 314 179 142 130 117 57 301 234 203 185 185 208 199 139 106 95 84 77 62 33 8 289 185 220 254 277 281 275 279 288 296 299 299 302 302 298 289 279 272 267 264 265 266 264 260 255 251 247 244 242 242 241 240 239 239
146 135 169 231 283 299 308 305 255 172 145 162 150 138 265 243 195 173 175 187 175 131 108 105 87 58 21 21 38 171 194 221 255 271 285 293 296 302 308 306 303 305 304 301 295 283 274 268 264 263 262 261 259 256 252 248 245 244 243 241 240 238 237
114 104 116 278 255 251 251 244 241 232 175 178 145 120 273 259 205 189 178 161 165 148 126 131 107 64 19 337 320 198 200 220 246 268 282 292 294 298 304 305 305 306 300 291 288 282 274 268 263 261 260 259 258 257 254 251 249 246 245 244 242 240 238
121 119 140 182 194 229 240 235 248 271 179 176 115 70 308 263 198 189 184 164 169 163 154 158 133 96 88 267 253 213 204 220 250 279 287 287 288 292 305 315 317 312 301 289 285 285 278 269 263 260 260 259 258 257 256 255 254 251 249 247 244 242 239
171 145 153 211 217 238 245 235 224 141 140 135 97 62 277 237 184 184 183 173 176 174 166 161 139 136 198 235 243 225 215 225 256 279 281 286 301 311 319 325 320 309 303 294 288 289 286 279 273 268 264 262 259 259 260 259 257 255 253 250 246 243 241
166 153 168 251 250 240 244 225 165 141 123 100 122 206 235 196 176 182 182 175 180 182 178 178 176 195 214 227 248 244 236 247 267 280 290 308 327 334 331 326 319 308 303 300 297 297 297 293 289 285 279 275 271 270 267 264 261 259 257 254 249 243 240
148 153 157 205 274 237 192 140 133 141 133 171 211 205 191 175 174 180 183 180 183 189 195 202 208 212 216 223 234 239 245 269 288 307 321 328 334 336 333 331 326 316 310 311 312 312 309 308 307 301 295 293 294 295 287 279 277 270 260 254 250 244 240
137 62 85 118 271 218 160 131 117 160 176 201 183 158 156 173 176 178 184 187 188 196 206 213 215 221 227 222 219 217 229 258 291 318 324 323 326 333 338 337 331 328 327 330 330 328 327 329 325 316 309 307 309 312 309 301 300 289 261 250 246 241 238
137 101 165 187 255 197 168 153 145 193 190 174 155 150 155 175 182 185 190 193 195 201 212 216 214 218 223 217 215 218 236 268 296 308 310 318 329 337 342 341 339 340 343 344 342 338 337 339 337 329 322 316 312 312 313 312 314 309 262 238 236 233 233
168 174 212 234 298 191 182 178 148 175 183 172 155 158 160 172 186 196 199 200 202 205 212 216 210 214 218 216 217 223 244 282 301 299 306 321 335 341 346 349 347 346 349 348 343 339 340 343 344 338 328 319 310 306 308 312 318 323 282 232 227 224 230
229 237 251 266 335 179 186 191 179 169 177 171 163 166 164 168 184 196 200 205 207 205 210 214 212 215 217 214 218 224 238 278 291 292 310 325 336 343 349 351 347 349 352 345 334 337 344 345 344 340 326 316 311 308 308 306 303 303 285 248 233 227 231
187 235 302 314 332 179 184 192 194 176 171 171 173 178 181 179 180 182 185 194 199 201 210 219 221 223 218 214 221 222 218 245 270 290 314 325 334 345 349 350 351 352 347 336 330 339 346 344 342 339 323 312 314 314 315 308 289 278 260 234 222 217 216
169 232 286 313 321 217 193 193 193 181 174 178 184 182 181 180 176 179 184 188 193 201 210 220 225 228 222 219 224 216 201 219 255 292 315 323 334 351 358 359 359 353 343 335 336 346 348 346 347 347 336 328 330 328 330 324 290 266 236 207 197 194 192
310 272 277 294 12 293 228 202 193 186 182 185 185 178 176 180 183 189 193 195 198 200 203 212 224 229 225 221 217 202 193 210 254 297 320 329 338 359 12 9 1 357 352 346 352 5 3 3 9 10 10 24 33 23 20 15 300 221 182 164 161 166 167
279 259 212 181 152 256 225 207 196 190 188 187 186 182 180 184 192 199 201 201 202 202 205 218 231 233 231 220 201 186 182 196 256 315 332 340 355 41 39 20 8 19 24 24 40 47 39 41 44 38 36 50 59 55 54 60 77 123 139 138 138 143 144
245 266 222 196 189 216 215 204 195 190 190 191 190 191 194 198 199 203 208 208 209 210 216 230 240 239 234 215 193 178 173 190 241 322 357 26 107 107 93 68 58 64 65 70 82 82 77 73 70 64 59 64 69 72 78 86 93 109 125 129 128 129 129
261 304 280 220 208 228 225 204 193 190 194 196 196 199 209 215 211 214 220 220 221 224 226 233 237 228 216 206 192 176 171 196 233 231 125 142 140 133 124 106 91 91 95 99 100 99 96 90 86 83 80 79 80 83 88 94 100 109 118 122 122 122 124
271 297 300 249 219 227 231 204 195 195 198 202 205 210 219 224 223 225 229 228 233 237 231 229 227 210 194 195 190 181 182 195 195 166 151 154 152 146 135 124 119 118 117 115 115 115 111 107 103 99 95 93 93 93 94 98 102 107 112 114 116 119 123
Height
1489 1490 1491 1491 1495 1502 1508 1509 1510 1512 1509 1510 1526 1540 1540 1540 1544 1543 1540 1533 1525 1521 1516 1511 1512 1511 1509 1509 1508 1506 1506 1505 1505 1506 1506 1507 1508 1509 1511 1512 1514 1516 1518 1521 1522 1524 1526 1528 1530 1532 1534 1536 1538 1540 1542 1543 1545 1548 1549 1551 1553 1555 1556
1491 1488 1489 1490 1492 1496 1503 1509 1509 1508 1510 1511 1518 1534 1544 1548 1549 1542 1539 1538 1533 1530 1524 1514 1513 1512 1510 1510 1508 1507 1507 1506 1506 1507 1506 1507 1507 1508 1511 1512 1515 1517 1518 1520 1521 1523 1525 1526 1528 1530 1532 1535 1537 1538 1540 1542 1543 1545 1547 1549 1551 1553 1554
1494 1489 1491 1496 1495 1494 1496 1502 1503 1506 1515 1519 1520 1530 1541 1547 1552 1546 1541 1542 1537 1530 1523 1515 1513 1514 1511 1510 1510 1508 1508 1507 1507 1507 1506 1507 1507 1508 1510 1512 1514 1516 1518 1520 1522 1523 1524 1527 1529 1530 1531 1533 1535 1537 1539 1540 1542 1543 1545 1547 1549 1551 1552
1495 1492 1496 1503 1503 1499 1497 1500 1503 1506 1514 1520 1522 1529 1533 1537 1551 1553 1544 1541 1533 1522 1516 1512 1512 1512 1510 1510 1510 1509 1509 1508 1507 1507 1507 1507 1507 1508 1509 1509 1511 1512 1514 1518 1520 1522 1525 1528 1530 1531 1532 1533 1533 1535 1537 1538 1540 1541 1543 1545 1546 1549 1550
1498 1500 1501 1503 1503 1503 1503 1505 1508 1510 1515 1520 1522 1530 1534 1533 1544 1552 1550 1545 1529 1513 1510 1510 1509 1510 1509 1509 1509 1508 1509 1508 1508 1508 1507 1507 1508 1508 1507 1508 1510 1512 1513 1515 1517 1519 1523 1526 1528 1529 1531 1532 1532 1534 1535 1536 1538 1539 1541 1542 1544 1546 1548
1501 1502 1500 1500 1499 1500 1502 1503 1506 1510 1514 1519 1524 1534 1539 1535 1537 1543 1549 1547 1526 1508 1508 1508 1507 1508 1507 1507 1508 1508 1508 1508 1508 1508 1507 1507 1507 1507 1507 1508 1510 1511 1512 1513 1515 1517 1520 1522 1524 1526 1528 1530 1531 1532 1533 1535 1536 1537 1539 1540 1542 1544 1545
1503 1502 1499 1499 1499 1499 1500 1502 1505 1508 1510 1513 1520 1530 1534 1536 1539 1539 1543 1544 1525 1508 1508 1508 1506 1507 1506 1506 1507 1507 1508 1508 1508 1508 1507 1507 1507 1506 1507 1508 1509 1510 1511 1512 1514 1515 1518 1520 1522 1524 1525 1526 1528 1530 1531 1533 1534 1535 1537 1538 1540 1542 1543
1502 1498 1497 1497 1498 1499 1502 1505 1507 1508 1509 1509 1514 1520 1523 1530 1538 1538 1542 1544 1525 1507 1508 1508 1506 1507 1505 1506 1507 1506 1508 1508 1508 1508 1507 1507 1507 1506 1507 1507 1507 1509 1510 1511 1512 1512 1514 1516 1518 1521 1522 1523 1525 1526 1529 1531 1532 1534 1535 1537 1538 1540 1541
1517 1511 1509 1506 1502 1502 1504 1507 1508 1508 1509 1511 1514 1518 1520 1527 1534 1534 1537 1540 1522 1507 1509 1507 1506 1508 1506 1506 1507 1506 1507 1508 1508 1508 1507 1506 1506 1506 1506 1506 1506 1507 1508 1509 1510 1511 1512 1513 1515 1517 1518 1520 1521 1523 1525 1527 1529 1531 1533 1535 1536 1537 1539
1530 1527 1521 1513 1507 1505 1505 1506 1508 1508 1509 1510 1512 1519 1523 1526 1533 1533 1530 1528 1517 1506 1507 1506 1506 1508 1506 1505 1506 1506 1507 1508 1508 1507 1507 1507 1506 1506 1506 1506 1506 1506 1507 1507 1508 1509 1511 1511 1513 1514 1515 1517 1519 1520 1522 1524 1526 1528 1530 1532 1534 1535 1537
1512 1511 1509 1506 1504 1505 1506 1506 1506 1508 1511 1511 1511 1519 1523 1522 1530 1533 1523 1518 1515 1508 1506 1506 1505 1506 1506 1505 1505 1505 1506 1508 1507 1507 1506 1506 1506 1505 1505 1505 1505 1505 1505 1506 1507 1508 1509 1510 1511 1512 1513 1514 1516 1518 1519 1520 1522 1524 1526 1529 1531 1532 1534
1499 1501 1502 1503 1502 1503 1505 1505 1505 1506 1510 1512 1511 1515 1517 1517 1526 1529 1518 1515 1517 1510 1504 1504 1504 1505 1506 1505 1505 1506 1506 1507 1507 1506 1506 1506 1505 1505 1504 1504 1504 1504 1504 1505 1505 1506 1507 1508 1509 1510 1511 1512 1514 1515 1516 1518 1519 1521 1523 1525 1527 1529 1531
1500 1504 1504 1503 1501 1503 1505 1504 1504 1505 1508 1511 1509 1509 1512 1512 1515 1516 1512 1514 1515 1507 1502 1503 1503 1504 1505 1505 1505 1506 1506 1507 1506 1506 1506 1505 1505 1504 1504 1504 1504 1504 1504 1504 1504 1505 1505 1506 1507 1508 1508 1509 1511 1512 1513 1515 1516 1518 1520 1522 1523 1525 1527
1500 1503 1504 1503 1501 1504 1505 1504 1504 1505 1507 1508 1506 1508 1512 1510 1509 1511 1513 1514 1510 1503 1502 1503 1503 1504 1504 1504 1505 1506 1506 1507 1506 1506 1506 1505 1505 1505 1504 1504 1504 1503 1503 1503 1503 1503 1503 1504 1505 1505 1506 1507 1508 1509 1510 1512 1514 1515 1517 1518 1520 1522 1523
1502 1501 1501 1503 1504 1504 1504 1503 1504 1506 1507 1510 1509 1509 1512 1512 1512 1514 1514 1513 1507 1501 1501 1503 1503 1504 1503 1504 1505 1505 1506 1507 1506 1506 1506 1505 1505 1505 1504 1504 1503 1503 1503 1502 1502 1501 1501 1502 1502 1502 1503 1504 1505 1506 1507 1509 1510 1512 1514 1515 1517 1518 1520
1507 1501 1501 1505 1504 1505 1506 1504 1503 1503 1504 1507 1507 1506 1507 1507 1509 1512 1513 1511 1505 1500 1500 1502 1503 1503 1503 1504 1505 1505 1506 1506 1506 1506 1506 1505 1505 1505 1504 1503 1503 1502 1502 1501 1501 1500 1500 1500 1500 1500 1500 1501 1502 1503 1504 1505 1507 1509 1511 1512 1513 1515 1517
1507 1506 1507 1505 1505 1512 1514 1505 1500 1500 1500 1502 1504 1503 1502 1502 1503 1507 1509 1506 1502 1500 1501 1502 1502 1503 1503 1504 1504 1505 1506 1506 1506 1506 1505 1505 1505 1504 1503 1502 1501 1501 1500 1499 1499 1499 1498 1498 1498 1498 1498 1498 1498 1499 1501 1502 1504 1505 1507 1508 1510 1511 1513
1505 1509 1507 1505 1513 1520 1513 1501 1497 1498 1498 1499 1501 1501 1500 1500 1501 1502 1503 1502 1501 1501 1501 1500 1501 1502 1503 1504 1504 1505 1505 1505 1505 1505 1505 1505 1504 1503 1502 1501 1500 1499 1499 1498 1498 1497 1497 1497 1496 1496 1496 1496 1496 1496 1497 1499 1500 1501 1503 1504 1506 1508 1510
1505 1509 1507 1514 1523 1515 1501 1497 1498 1497 1497 1497 1499 1499 1500 1500 1501 1500 1501 1501 1501 1500 1500 1500 1501 1502 1502 1503 1504 1504 1505 1505 1504 1505 1505 1504 1504 1503 1501 1500 1499 1498 1497 1496 1496 1496 1495 1495 1494 1494 1494 1493 1493 1494 1494 1495 1496 1497 1499 1500 1502 1504 1506
1507 1508 1511 1519 1518 1504 1497 1499 1498 1495 1497 1498 1499 1501 1500 1499 1499 1499 1499 1500 1500 1500 1500 1500 1501 1502 1502 1503 1503 1503 1504 1504 1504 1504 1504 1503 1503 1502 1500 1499 1497 1496 1495 1495 1494 1494 1494 1493 1493 1493 1492 1492 1491 1491 1491 1492 1493 1494 1495 1496 1498 1500 1502
1508 1509 1511 1512 1509 1505 1501 1498 1495 1494 1495 1495 1496 1499 1499 1496 1497 1498 1497 1498 1499 1499 1500 1500 1501 1502 1502 1502 1503 1503 1503 1503 1503 1503 1503 1503 1502 1501 1500 1498 1497 1495 1495 1494 1493 1492 1491 1491 1491 1491 1490 1490 1489 1488 1488 1489 1490 1491 1491 1492 1494 1496 1498
1509 1509 1512 1513 1514 1511 1500 1492 1491 1490 1491 1491 1491 1496 1498 1494 1493 1495 1495 1496 1498 1498 1499 1500 1500 1501 1503 1503 1503 1502 1502 1503 1503 1503 1503 1502 1501 1500 1499 1497 1495 1494 1494 1492 1491 1490 1489 1489 1489 1488 1488 1487 1486 1486 1485 1486 1486 1487 1487 1489 1491 1492 1494
1506 1504 1507 1512 1513 1504 1492 1487 1488 1488 1490 1489 1490 1499 1502 1493 1490 1493 1493 1494 1496 1497 1498 1499 1499 1502 1505 1504 1502 1501 1502 1502 1502 1502 1501 1500 1500 1499 1497 1496 1494 1493 1492 1490 1489 1488 1487 1487 1487 1486 1485 1485 1484 1483 1483 1483 1483 1482 1483 1485 1487 1489 1491
1501 1500 1503 1507 1503 1493 1487 1487 1487 1489 1489 1487 1497 1512 1508 1490 1487 1492 1491 1492 1495 1495 1496 1498 1499 1501 1503 1501 1500 1500 1500 1501 1501 1501 1500 1499 1499 1497 1496 1495 1493 1491 1490 1489 1488 1487 1485 1485 1484 1484 1483 1482 1481 1481 1480 1480 1479 1478 1479 1481 1483 1485 1487
1499 1501 1502 1503 1498 1488 1485 1486 1486 1487 1489 1493 1505 1511 1497 1484 1487 1490 1489 1492 1494 1494 1495 1497 1497 1498 1499 1498 1499 1499 1499 1499 1500 1499 1499 1498 1497 1496 1495 1493 1492 1490 1489 1488 1486 1485 1484 1483 1482 1482 1481 1480 1479 1478 1478 1476 1475 1475 1476 1477 1478 1481 1482
1501 1500 1500 1504 1499 1485 1481 1485 1486 1486 1492 1499 1499 1492 1483 1483 1487 1488 1489 1492 1493 1493 1495 1495 1495 1497 1497 1497 1498 1498 1498 1498 1498 1498 1498 1497 1496 1495 1494 1492 1491 1490 1488 1487 1485 1484 1483 1482 1481 1480 1479 1477 1476 1475 1474 1472 1472 1471 1471 1472 1474 1476 1479
1501 1502 1503 1507 1499 1483 1477 1483 1486 1487 1490 1490 1485 1481 1482 1485 1486 1487 1490 1491 1491 1493 1494 1494 1495 1496 1496 1496 1497 1496 1497 1497 1497 1497 1497 1496 1495 1494 1493 1492 1491 1489 1488 1486 1485 1483 1482 1481 1480 1478 1477 1475 1474 1472 1471 1469 1468 1466 1465 1466 1469 1472 1475
1493 1498 1498 1494 1485 1476 1475 1478 1480 1482 1482 1481 1479 1481 1483 1484 1485 1488 1489 1489 1491 1492 1492 1493 1494 1494 1494 1495 1495 1495 1496 1496 1496 1496 1496 1495 1494 1493 1492 1491 1490 1489 1488 1486 1485 1483 1482 1481 1479 1477 1475 1474 1472 1470 1468 1467 1465 1463 1462 1464 1466 1469 1472
1483 1485 1483 1477 1474 1474 1475 1475 1475 1477 1479 1480 1481 1482 1482 1484 1486 1487 1488 1489 1490 1491 1491 1492 1493 1492 1493 1494 1494 1495 1495 1495 1495 1495 1494 1494 1494 1492 1491 1491 1489 1488 1487 1486 1485 1484 1482 1481 1479 1477 1475 1473 1471 1469 1467 1465 1463 1462 1462 1463 1465 1467 1470
1478 1477 1475 1474 1474 1473 1474 1475 1476 1477 1478 1480 1481 1482 1483 1484 1485 1486 1488 1489 1489 1489 1490 1491 1491 1492 1492 1492 1493 1494 1494 1494 1495 1494 1494 1493 1493 1492 1491 1490 1489 1488 1487 1486 1485 1484 1483 1481 1479 1476 1475 1473 1471 1469 1466 1465 1464 1463 1463 1464 1465 1467 1468
1479 1478 1475 1474 1474 1473 1474 1475 1476 1477 1478 1480 1481 1482 1483 1484 1485 1487 1488 1488 1489 1489 1489 1489 1490 1491 1491 1491 1492 1493 1493 1494 1494 1493 1493 1493 1492 1492 1491 1490 1489 1488 1487 1486 1485 1484 1483 1481 1478 1477 1476 1473 1471 1469 1467 1466 1465 1464 1464 1465 1465 1466 1468
1479 1478 1476 1474 1474 1474 1474 1475 1476 1477 1478 1479 1480 1482 1483 1484 1485 1487 1487 1488 1489 1488 1488 1489 1490 1490 1490 1491 1492 1492 1493 1493 1493 1493 1493 1492 1492 1492 1491 1490 1489 1488 1487 1487 1485 1484 1483 1481 1479 1478 1477 1475 1473 1471 1469 1468 1466 1465 1465 1465 1466 1467 1468
1479 1478 1476 1475 1475 1475 1474 1474 1475 1476 1477 1479 1480 1481 1482 1483 1485 1486 1487 1487 1488 1488 1488 1489 1488 1489 1489 1490 1491 1492 1492 1492 1493 1493 1492 1492 1492 1492 1491 1490 1490 1488 1488 1487 1486 1485 1484 1482 1481 1480 1479 1477 1475 1473 1472 1470 1469 1467 1467 1467 1467 1468 1469
1480 1476 1474 1474 1475 1474 1473 1473 1474 1476 1477 1478 1479 1480 1482 1483 1484 1485 1486 1486 1487 1487 1488 1488 1488 1488 1488 1489 1490 1491 1492 1492 1493 1492 1492 1492 1492 1492 1492 1491 1490 1489 1489 1488 1487 1486 1485 1484 1484 1483 1481 1480 1479 1477 1475 1474 1472 1471 1471 1471 1471 1472 1473
1476 1473 1471 1472 1472 1471 1470 1471 1473 1475 1476 1477 1479 1480 1481 1482 1483 1484 1485 1485 1486 1486 1487 1487 1487 1487 1488 1489 1490 1490 1491 1492 1492 1492 1492 1492 1492 1492 1492 1492 1491 1491 1490 1489 1489 1488 1487 1486 1486 1486 1485 1484 1483 1481 1479 1478 1477 1476 1476 1475 1476 1477 1478
1473 1471 1471 1471 1471 1470 1471 1471 1473 1475 1476 1477 1478 1479 1480 1481 1482 1483 1483 1484 1485 1485 1486 1486 1487 1487 1488 1488 1489 1490 1491 1492 1492 1492 1492 1492 1493 1493 1493 1493 1493 1492 1491 1491 1490 1490 1489 1489 1489 1489 1489 1488 1487 1486 1485 1483 1482 1482 1481 1481 1481 1482 1484
1472 1471 1470 1470 1471 1471 1471 1472 1473 1474 1476 1477 1477 1478 1479 1480 1481 1482 1482 1483 1484 1484 1485 1485 1486 1486 1487 1488 1489 1490 1491 1491 1492 1492 1492 1493 1493 1494 1494 1494 1494 1494 1493 1492 1492 1492 1491 1491 1491 1492 1492 1492 1491 1491 1490 1489 1488 1488 1487 1487 1487 1488 1489